CFG321 EDDM-EDDV

Flight info

Callsign CFG321
Flight time 0h 47m
Altitude 30000
Route INPUD2N/26R INPUD Y102 UPALA M726 LASTO M852 BIRKA/N0391F240 T803 GITEX GITEX5P
Aircraft A321/M-SDE3FGHIRWY/L

Departure

Time 2026-05-04 18:31
Airport Munich Airport (EDDM)

Arrival

Time 2026-05-04 19:18
Airport Hannover Airport (EDDV)
Time Latitude Longitude Altitude Speed Heading
2026-05-04 18:10 48.35880 11.79226 1467 ft 0 kts 263°
2026-05-04 18:20 48.35880 11.79231 1456 ft 2 kts 263°
2026-05-04 18:20 48.35882 11.79259 1462 ft 3 kts 265°
2026-05-04 18:21 48.35883 11.79289 1456 ft 3 kts 269°
2026-05-04 18:21 48.35883 11.79320 1456 ft 3 kts 274°
2026-05-04 18:21 48.35881 11.79349 1456 ft 3 kts 287°
2026-05-04 18:21 48.35873 11.79375 1458 ft 3 kts 321°
2026-05-04 18:22 48.35865 11.79383 1460 ft 0 kts 353°
2026-05-04 18:22 48.35864 11.79383 1461 ft 0 kts 353°
2026-05-04 18:23 48.35865 11.79383 1460 ft 1 kts 353°
2026-05-04 18:23 48.35901 11.79363 1467 ft 9 kts 338°
2026-05-04 18:23 48.35976 11.79338 1467 ft 12 kts 353°
2026-05-04 18:23 48.36065 11.79326 1467 ft 13 kts 355°
2026-05-04 18:24 48.36155 11.79312 1460 ft 13 kts
2026-05-04 18:24 48.36209 11.79400 1460 ft 13 kts 82°
2026-05-04 18:24 48.36219 11.79536 1466 ft 13 kts 84°
2026-05-04 18:24 48.36232 11.79714 1464 ft 22 kts 83°
2026-05-04 18:25 48.36250 11.79940 1462 ft 21 kts 83°
2026-05-04 18:25 48.36265 11.80159 1459 ft 20 kts 84°
2026-05-04 18:25 48.36280 11.80361 1458 ft 19 kts 82°
2026-05-04 18:25 48.36301 11.80606 1467 ft 28 kts 83°
2026-05-04 18:26 48.36323 11.80889 1459 ft 27 kts 83°
2026-05-04 18:26 48.36344 11.81162 1467 ft 26 kts 83°
2026-05-04 18:26 48.36364 11.81421 1466 ft 24 kts 83°
2026-05-04 18:26 48.36383 11.81666 1460 ft 23 kts 83°
2026-05-04 18:27 48.36394 11.81899 1456 ft 22 kts 95°
2026-05-04 18:27 48.36430 11.82007 1466 ft 12 kts 358°
2026-05-04 18:27 48.36464 11.82001 1457 ft 2 kts 353°
2026-05-04 18:27 48.36483 11.81998 1462 ft 2 kts 354°
2026-05-04 18:28 48.36484 11.81998 1462 ft 0 kts 354°
2026-05-04 18:29 48.36513 11.81993 1466 ft 10 kts 354°
2026-05-04 18:29 48.36616 11.81975 1466 ft 19 kts 350°
2026-05-04 18:29 48.36664 11.81845 1466 ft 6 kts 264°
2026-05-04 18:30 48.36664 11.81838 1466 ft 2 kts 265°
2026-05-04 18:30 48.36644 11.81569 1463 ft 57 kts 263°
2026-05-04 18:30 48.36578 11.80682 1464 ft 110 kts 264°
2026-05-04 18:31 48.36475 11.79327 1470 ft 149 kts 263°
2026-05-04 18:31 48.36364 11.77666 1711 ft 160 kts 265°
2026-05-04 18:31 48.36250 11.75998 2136 ft 161 kts 265°
2026-05-04 18:31 48.36131 11.74317 2548 ft 163 kts 264°
2026-05-04 18:32 48.35987 11.72624 2945 ft 163 kts 262°
2026-05-04 18:32 48.35827 11.70948 3354 ft 162 kts 268°
2026-05-04 18:32 48.35846 11.69270 3766 ft 160 kts 272°
2026-05-04 18:32 48.36013 11.67613 4074 ft 165 kts 294°
2026-05-04 18:33 48.36707 11.66230 4278 ft 174 kts 326°
2026-05-04 18:33 48.37832 11.65554 4579 ft 176 kts 347°
2026-05-04 18:33 48.39009 11.65095 4969 ft 174 kts 346°
2026-05-04 18:33 48.40184 11.64630 5339 ft 174 kts 346°
2026-05-04 18:34 48.41369 11.64179 5625 ft 181 kts 348°
2026-05-04 18:34 48.42650 11.63814 5771 ft 195 kts 350°
2026-05-04 18:34 48.44047 11.63447 5921 ft 213 kts 350°
2026-05-04 18:34 48.45569 11.63041 6065 ft 232 kts 349°
2026-05-04 18:35 48.47225 11.62505 6187 ft 256 kts 342°
2026-05-04 18:35 48.48999 11.61635 6480 ft 277 kts 340°
2026-05-04 18:35 48.50847 11.60647 7043 ft 286 kts 339°
2026-05-04 18:35 48.52729 11.59615 7710 ft 290 kts 338°
2026-05-04 18:36 48.54636 11.58565 8436 ft 294 kts 337°
2026-05-04 18:36 48.56571 11.57506 9147 ft 297 kts 337°
2026-05-04 18:36 48.58528 11.56441 9847 ft 301 kts 336°
2026-05-04 18:36 48.60526 11.55355 10285 ft 315 kts 336°
2026-05-04 18:37 48.62665 11.54192 10423 ft 338 kts 337°
2026-05-04 18:37 48.64943 11.52955 10693 ft 354 kts 337°
2026-05-04 18:37 48.67284 11.51689 11268 ft 360 kts 337°
2026-05-04 18:37 48.69658 11.50411 11903 ft 364 kts 338°
2026-05-04 18:38 48.72143 11.49483 12531 ft 372 kts 350°
2026-05-04 18:38 48.74718 11.48972 13193 ft 375 kts 351°
2026-05-04 18:38 48.77321 11.48469 13832 ft 379 kts 351°
2026-05-04 18:38 48.79953 11.47969 14427 ft 382 kts 351°
2026-05-04 18:39 48.82596 11.47468 15035 ft 384 kts 351°
2026-05-04 18:39 48.85257 11.46959 15645 ft 387 kts 351°
2026-05-04 18:39 48.87936 11.46442 16243 ft 389 kts 351°
2026-05-04 18:39 48.90632 11.45924 16855 ft 392 kts 351°
2026-05-04 18:40 48.93340 11.45403 17449 ft 394 kts 350°
2026-05-04 18:40 48.96039 11.44882 18048 ft 396 kts 351°
2026-05-04 18:40 48.98812 11.44341 18629 ft 397 kts 350°
2026-05-04 18:40 49.01522 11.43807 19115 ft 399 kts 350°
2026-05-04 18:41 49.04326 11.43251 19584 ft 402 kts 350°
2026-05-04 18:41 49.07074 11.42706 20051 ft 405 kts 350°
2026-05-04 18:41 49.09880 11.42155 20511 ft 408 kts 350°
2026-05-04 18:41 49.12709 11.41603 20958 ft 411 kts 350°
2026-05-04 18:42 49.15455 11.41066 21395 ft 414 kts 350°
2026-05-04 18:42 49.18320 11.40504 21846 ft 417 kts 350°
2026-05-04 18:42 49.21211 11.39931 22318 ft 420 kts 350°
2026-05-04 18:42 49.24116 11.39353 22765 ft 422 kts 350°
2026-05-04 18:43 49.27041 11.38772 23184 ft 425 kts 350°
2026-05-04 18:43 49.29985 11.38187 23580 ft 429 kts 350°
2026-05-04 18:43 49.32950 11.37598 23948 ft 431 kts 350°
2026-05-04 18:43 49.35935 11.37009 24338 ft 433 kts 350°
2026-05-04 18:44 49.38927 11.36421 24718 ft 435 kts 350°
2026-05-04 18:44 49.40922 11.36029 24966 ft 436 kts 350°
2026-05-04 18:44 49.44957 11.35238 25497 ft 438 kts 350°
2026-05-04 18:44 49.47988 11.34638 25868 ft 440 kts 349°
2026-05-04 18:45 49.51005 11.34034 26225 ft 442 kts 349°
2026-05-04 18:45 49.54064 11.33416 26578 ft 444 kts 349°
2026-05-04 18:45 49.57132 11.32797 26930 ft 446 kts 349°
2026-05-04 18:45 49.60212 11.32180 27280 ft 448 kts 349°
2026-05-04 18:46 49.63313 11.31560 27642 ft 450 kts 349°
2026-05-04 18:46 49.66394 11.30947 27964 ft 453 kts 349°
2026-05-04 18:46 49.69519 11.30326 28256 ft 455 kts 349°
2026-05-04 18:46 49.72675 11.29692 28566 ft 458 kts 349°
2026-05-04 18:47 49.75840 11.29056 28885 ft 459 kts 349°
2026-05-04 18:47 49.79009 11.28417 29206 ft 461 kts 349°
2026-05-04 18:47 49.82186 11.27775 29519 ft 463 kts 349°
2026-05-04 18:47 49.85368 11.27130 29819 ft 465 kts 349°
2026-05-04 18:48 49.88491 11.26498 29962 ft 463 kts 349°
2026-05-04 18:48 49.91641 11.25861 29967 ft 450 kts 349°
2026-05-04 18:48 49.94724 11.25239 29968 ft 445 kts 348°
2026-05-04 18:49 50.00856 11.24000 29962 ft 443 kts 348°
2026-05-04 18:49 50.06955 11.22782 29965 ft 444 kts 351°
2026-05-04 18:50 50.13172 11.22668 29970 ft 447 kts 356°
2026-05-04 18:50 50.19344 11.22707 29970 ft 447 kts 356°
2026-05-04 18:51 50.25482 11.22748 29972 ft 446 kts 356°
2026-05-04 18:51 50.31691 11.22784 29969 ft 446 kts 356°
2026-05-04 18:52 50.37874 11.22546 29981 ft 442 kts 350°
2026-05-04 18:52 50.44003 11.21613 29978 ft 442 kts 350°
2026-05-04 18:53 50.50115 11.20692 29974 ft 441 kts 350°
2026-05-04 18:53 50.56236 11.19763 29977 ft 442 kts 350°
2026-05-04 18:54 50.62354 11.18828 29973 ft 443 kts 350°
2026-05-04 18:54 50.68501 11.17897 29970 ft 444 kts 350°
2026-05-04 18:55 50.74654 11.16962 29971 ft 444 kts 350°
2026-05-04 18:55 50.83867 11.15547 29937 ft 442 kts 349°
2026-05-04 18:56 50.86903 11.15087 29639 ft 434 kts 349°
2026-05-04 18:56 50.89888 11.14634 29360 ft 429 kts 349°
2026-05-04 18:56 50.92842 11.14183 29083 ft 426 kts 350°
2026-05-04 18:56 50.95785 11.13730 28808 ft 424 kts 350°
2026-05-04 18:57 50.98668 11.12978 28537 ft 415 kts 338°
2026-05-04 18:57 51.01392 11.11489 28268 ft 412 kts 335°
2026-05-04 18:57 51.04087 11.09963 28001 ft 411 kts 335°
2026-05-04 18:57 51.06768 11.08429 27742 ft 408 kts 335°
2026-05-04 18:58 51.09435 11.06897 27483 ft 406 kts 335°
2026-05-04 18:58 51.12085 11.05370 27218 ft 405 kts 335°
2026-05-04 18:58 51.14728 11.03844 26966 ft 403 kts 335°
2026-05-04 18:58 51.17361 11.02326 26697 ft 402 kts 335°
2026-05-04 18:59 51.19990 11.00810 26437 ft 401 kts 335°
2026-05-04 18:59 51.22607 10.99300 26202 ft 400 kts 335°
2026-05-04 18:59 51.25223 10.97791 25950 ft 399 kts 335°
2026-05-04 18:59 51.27827 10.96288 25694 ft 398 kts 336°
2026-05-04 19:00 51.30428 10.94779 25446 ft 397 kts 335°
2026-05-04 19:00 51.32144 10.93782 25301 ft 395 kts 335°
2026-05-04 19:00 51.34721 10.92283 25059 ft 394 kts 335°
2026-05-04 19:00 51.37290 10.90788 24817 ft 392 kts 336°
2026-05-04 19:01 51.39848 10.89297 24580 ft 391 kts 336°
2026-05-04 19:01 51.42384 10.87816 24302 ft 385 kts 336°
2026-05-04 19:01 51.45736 10.85861 23734 ft 381 kts 336°
2026-05-04 19:01 51.47379 10.84905 23431 ft 379 kts 336°
2026-05-04 19:02 51.49848 10.83465 22972 ft 376 kts 336°
2026-05-04 19:02 51.52290 10.82036 22545 ft 372 kts 336°
2026-05-04 19:02 51.54705 10.80622 22122 ft 368 kts 336°
2026-05-04 19:02 51.57116 10.79206 21945 ft 372 kts 336°
2026-05-04 19:03 51.59576 10.77753 21560 ft 381 kts 336°
2026-05-04 19:03 51.62103 10.76262 20711 ft 389 kts 336°
2026-05-04 19:03 51.64624 10.74785 20328 ft 384 kts 336°
2026-05-04 19:03 51.67125 10.73322 20015 ft 377 kts 336°
2026-05-04 19:04 51.69568 10.71887 19971 ft 373 kts 336°
2026-05-04 19:04 51.71959 10.70315 19994 ft 370 kts 330°
2026-05-04 19:04 51.74258 10.68461 19963 ft 369 kts 330°
2026-05-04 19:04 51.76537 10.66570 19709 ft 367 kts 329°
2026-05-04 19:05 51.78791 10.64667 19462 ft 366 kts 329°
2026-05-04 19:05 51.81043 10.62761 19227 ft 364 kts 329°
2026-05-04 19:05 51.83281 10.60866 18990 ft 363 kts 329°
2026-05-04 19:05 51.85486 10.59003 18756 ft 361 kts 329°
2026-05-04 19:06 51.87714 10.57126 18525 ft 360 kts 329°
2026-05-04 19:06 51.89937 10.55253 17904 ft 365 kts 329°
2026-05-04 19:06 51.92223 10.53316 16862 ft 378 kts 329°
2026-05-04 19:06 51.94564 10.51331 16343 ft 377 kts 330°
2026-05-04 19:07 51.96874 10.49379 15938 ft 372 kts 330°
2026-05-04 19:07 51.99162 10.47443 15492 ft 370 kts 330°
2026-05-04 19:07 52.01426 10.45526 15186 ft 363 kts 330°
2026-05-04 19:07 52.03637 10.43653 14936 ft 354 kts 330°
2026-05-04 19:08 52.05813 10.41805 14379 ft 356 kts 330°
2026-05-04 19:08 52.08047 10.39897 13639 ft 365 kts 330°
2026-05-04 19:08 52.10272 10.38000 13276 ft 358 kts 330°
2026-05-04 19:08 52.12467 10.36133 12839 ft 355 kts 330°
2026-05-04 19:09 52.14624 10.34303 12690 ft 343 kts 330°
2026-05-04 19:09 52.16699 10.32535 12558 ft 331 kts 330°
2026-05-04 19:09 52.18703 10.30822 12421 ft 319 kts 330°
2026-05-04 19:09 52.20661 10.29144 11870 ft 322 kts 330°
2026-05-04 19:10 52.22678 10.27409 11056 ft 333 kts 330°
2026-05-04 19:10 52.24760 10.25617 10266 ft 343 kts 330°
2026-05-04 19:10 52.26897 10.23776 9457 ft 352 kts 330°
2026-05-04 19:10 52.29160 10.22194 8729 ft 356 kts 342°
2026-05-04 19:11 52.31538 10.21145 7852 ft 364 kts 344°
2026-05-04 19:11 52.33998 10.20130 6998 ft 362 kts 344°
2026-05-04 19:11 52.36390 10.19166 6150 ft 346 kts 344°
2026-05-04 19:11 52.38676 10.18242 5294 ft 332 kts 345°
2026-05-04 19:12 52.40869 10.17335 4468 ft 319 kts 345°
2026-05-04 19:12 52.44493 10.14584 3835 ft 266 kts 308°
2026-05-04 19:12 52.45258 10.12031 3634 ft 240 kts 277°
2026-05-04 19:13 52.45139 10.09465 3399 ft 233 kts 252°
2026-05-04 19:13 52.44568 10.07102 3069 ft 221 kts 250°
2026-05-04 19:13 52.44388 10.04682 2989 ft 206 kts 274°
2026-05-04 19:13 52.44474 10.02430 3001 ft 186 kts 273°
2026-05-04 19:14 52.44541 10.00389 2999 ft 179 kts 273°
2026-05-04 19:14 52.44603 9.98345 3008 ft 176 kts 273°
2026-05-04 19:14 52.44662 9.96400 3004 ft 171 kts 272°
2026-05-04 19:14 52.44721 9.94429 2916 ft 170 kts 272°
2026-05-04 19:15 52.44779 9.92504 2761 ft 168 kts 272°
2026-05-04 19:15 52.44836 9.90619 2530 ft 167 kts 273°
2026-05-04 19:15 52.44892 9.88716 2311 ft 167 kts 273°
2026-05-04 19:15 52.44948 9.86843 2092 ft 166 kts 273°
2026-05-04 19:16 52.45004 9.84958 1873 ft 165 kts 273°
2026-05-04 19:16 52.45059 9.83079 1653 ft 165 kts 273°
2026-05-04 19:16 52.45113 9.81214 1432 ft 162 kts 273°
2026-05-04 19:16 52.45164 9.79437 1214 ft 154 kts 273°
2026-05-04 19:17 52.45214 9.77710 1011 ft 151 kts 272°
2026-05-04 19:17 52.45264 9.75998 812 ft 150 kts 271°
2026-05-04 19:17 52.45312 9.74295 625 ft 149 kts 271°
2026-05-04 19:17 52.45360 9.72601 419 ft 149 kts 270°
2026-05-04 19:18 52.45408 9.70912 220 ft 148 kts 270°
2026-05-04 19:18 52.45442 9.69426 183 ft 80 kts 272°
2026-05-04 19:18 52.45460 9.68740 182 ft 49 kts 273°
2026-05-04 19:18 52.45489 9.68295 181 ft 24 kts 302°
2026-05-04 19:19 52.45583 9.68253 179 ft 0 kts
2026-05-04 19:19 52.45585 9.68254 179 ft 0 kts
2026-05-04 19:19 52.45601 9.68257 179 ft 9 kts 11°
2026-05-04 19:19 52.45642 9.68356 179 ft 12 kts 90°
2026-05-04 19:20 52.45639 9.68498 179 ft 16 kts 92°
2026-05-04 19:20 52.45634 9.68720 179 ft 20 kts 93°
2026-05-04 19:20 52.45625 9.68939 179 ft 19 kts 92°
2026-05-04 19:20 52.45652 9.69124 178 ft 17 kts 30°
2026-05-04 19:21 52.45750 9.69194 178 ft 15 kts 53°
2026-05-04 19:21 52.45759 9.69351 178 ft 13 kts 92°
2026-05-04 19:21 52.45767 9.69451 178 ft 7 kts 61°
2026-05-04 19:21 52.45793 9.69513 178 ft 6 kts 51°
2026-05-04 19:22 52.45809 9.69544 178 ft 0 kts 51°
2026-05-04 19:46 52.45808 9.69544 179 ft 0 kts 51°